Torna al catalogo

STARLINK-31034

AttivoComunicazioniVLEO
NORAD 58785·PAYLOAD·🇺🇸 United States

Lanciato Jan 14, 2024 da Vandenberg Space Force Base

Loading…

Prossimi Passaggi (prossime 24 ore)

TLE

AggiornatoSource: CelesTrak SupGP

Epoca: Sep 14, 2026, 21:32 UTC

1 58785C 24011W   26257.89770833 -.00029278  00000+0 -86519-3 0  2576
2 58785  53.1573 108.2468 0001221  83.5592 102.2553 15.34399723    11

Traccia STARLINK-31034 in tempo reale con AllMySat

Download on the App Store